FW6665 Weather Reports


Display with metric or nautical units.
time (UTC)temp
F
wind
direction
speed
MPH
gust
MPH
rain 1hr
in
rain 24hr
in
rain mn
in
humidity
%
barometer
mb
20260831115706 70 234 4.0 14.0 0.00 0.04 0.00 63 1009.2
20260831115205 69 200 3.0 13.0 0.00 0.04 0.00 63 1009.2
20260831114704 70 204 7.0 13.0 0.00 0.04 0.00 61 1009.1
20260831114204 70 268 4.0 12.0 0.00 0.04 0.00 62 1009.1
20260831113732 69 231 2.0 12.0 0.00 0.04 0.00 64 1008.9
20260831113204 69 247 4.0 13.0 0.00 0.04 0.00 62 1009.0
20260831112203 70 261 6.0 11.0 0.00 0.04 0.00 63 1008.8
20260831111714 69 240 6.0 9.0 0.00 0.04 0.00 64 1008.7
20260831110703 69 248 2.0 10.0 0.00 0.04 0.00 64 1008.7
20260831105204 69 255 4.0 11.0 0.00 0.04 0.00 66 1008.5
20260831104704 68 243 4.0 11.0 0.00 0.04 0.00 68 1008.4
20260831103703 69 252 4.0 11.0 0.00 0.04 0.00 67 1008.2
20260831103204 69 186 4.0 11.0 0.00 0.04 0.00 68 1008.3
20260831102704 68 245 3.0 11.0 0.00 0.04 0.00 70 1008.2
20260831102203 67 185 2.0 11.0 0.00 0.04 0.00 71 1008.1
20260831101704 67 209 2.0 11.0 0.00 0.04 0.00 71 1008.1
20260831101204 67 247 3.0 12.0 0.00 0.04 0.00 71 1008.0
20260831100704 67 193 3.0 12.0 0.00 0.04 0.00 73 1008.0
20260831100204 66 238 3.0 10.0 0.00 0.04 0.00 74 1008.0
20260831095704 65 228 4.0 10.0 0.00 0.04 0.00 74 1007.9
20260831095204 65 241 4.0 13.0 0.00 0.04 0.00 73 1007.9
20260831094204 65 240 2.0 13.0 0.00 0.04 0.00 74 1007.7
20260831093707 65 231 3.0 13.0 0.00 0.04 0.00 74 1007.8
20260831093204 65 245 4.0 14.0 0.00 0.04 0.00 75 1007.6
20260831091706 65 261 4.0 11.0 0.00 0.04 0.00 74 1007.4
20260831091204 65 237 4.0 14.0 0.00 0.04 0.00 74 1007.4
20260831090705 65 230 3.0 14.0 0.00 0.04 0.00 75 1007.1
20260831090204 64 247 4.0 12.0 0.00 0.04 0.00 75 1007.1
20260831085704 64 237 6.0 12.0 0.00 0.04 0.00 75 1007.1
20260831085226 64 259 5.0 12.0 0.00 0.04 0.00 76 1007.0
20260831084230 64 237 4.0 12.0 0.00 0.04 0.00 76 1006.9
20260831083704 64 243 2.0 12.0 0.00 0.04 0.00 76 1006.7
20260831083204 63 235 3.0 9.0 0.00 0.04 0.00 77 1006.7
20260831082703 63 243 3.0 9.0 0.00 0.04 0.00 77 1006.6
20260831082204 62 247 3.0 10.0 0.00 0.04 0.00 77 1006.5
20260831081703 62 252 4.0 10.0 0.00 0.04 0.00 78 1006.5
20260831080704 62 247 4.0 10.0 0.00 0.04 0.00 78 1006.4
20260831080205 62 199 3.0 14.0 0.00 0.04 0.00 78 1006.4
20260831075704 62 230 3.0 14.0 0.00 0.04 0.00 78 1006.3
20260831075205 61 264 4.0 14.0 0.00 0.04 0.00 78 1006.2
20260831074704 61 200 5.0 14.0 0.00 0.04 0.00 78 1006.2
20260831073704 60 207 6.0 7.0 0.00 0.04 0.00 78 1005.9
20260831073205 60 226 2.0 12.0 0.00 0.04 0.00 78 1005.8
20260831072704 60 238 4.0 12.0 0.00 0.04 0.00 78 1005.8
20260831072204 60 186 2.0 7.0 0.00 0.04 0.00 78 1005.7
20260831071705 60 238 3.0 7.0 0.00 0.04 0.00 78 1005.7
20260831071204 59 161 4.0 10.0 0.00 0.04 0.00 77 1005.6
20260831070203 59 230 4.0 11.0 0.00 0.04 0.00 77 1005.5
20260831065704 59 204 2.0 11.0 0.00 0.04 0.00 77 1005.5
20260831065206 59 220 3.0 9.0 0.00 0.04 0.00 77 1005.4
20260831064705 59 248 3.0 9.0 0.00 0.04 0.00 77 1005.4
20260831063704 59 245 3.0 7.0 0.00 0.04 0.00 77 1005.3
20260831063204 59 235 2.0 10.0 0.00 0.04 0.00 77 1005.1
20260831062706 59 234 3.0 10.0 0.00 0.04 0.00 77 1005.1
20260831062205 58 209 2.0 10.0 0.00 0.04 0.00 77 1005.1
20260831061704 58 216 2.0 10.0 0.00 0.04 0.00 77 1004.9
20260831060704 58 189 2.0 6.0 0.00 0.04 0.00 76 1004.7
20260831055704 58 259 2.0 10.0 0.00 0.04 0.00 76 1004.6
20260831055204 58 206 2.0 6.0 0.00 0.04 0.00 76 1004.6
20260831054703 58 257 2.0 6.0 0.00 0.04 0.00 76 1004.4
20260831054204 58 176 1.0 10.0 0.00 0.04 0.00 77 1004.4
20260831053704 58 209 1.0 10.0 0.00 0.04 0.00 77 1004.2
20260831053204 58 244 2.0 9.0 0.00 0.04 0.00 77 1004.2
20260831052704 58 264 2.0 9.0 0.00 0.04 0.00 77 1004.1
20260831052204 58 243 2.0 9.0 0.00 0.04 0.00 77 1004.2
20260831051704 58 247 3.0 9.0 0.00 0.04 0.00 76 1004.2
20260831051204 58 233 2.0 9.0 0.00 0.04 0.00 76 1004.1
20260831050704 58 186 2.0 6.0 0.00 0.04 0.00 76 1004.0
20260831050204 59 265 1.0 6.0 0.00 0.04 0.00 76 1003.8
20260831045704 59 188 2.0 6.0 0.00 0.04 0.00 77 1003.8
20260831044704 59 226 1.0 5.0 0.00 0.04 0.00 77 1003.6
20260831044203 59 178 2.0 5.0 0.00 0.04 0.00 77 1003.6
20260831043706 59 185 1.0 7.0 0.00 0.04 0.00 77 1003.5
20260831042704 59 244 2.0 7.0 0.00 0.04 0.00 77 1003.5
20260831042208 59 251 2.0 7.0 0.00 0.04 0.00 77 1003.5
20260831041704 59 238 1.0 5.0 0.00 0.04 0.00 77 1003.5
20260831041204 59 235 1.0 5.0 0.00 0.04 0.00 77 1003.4
20260831040704 60 195 1.0 6.0 0.00 0.04 0.00 77 1003.4
20260831040206 60 199 2.0 6.0 0.00 0.04 0.00 77 1003.4
20260831035204 60 257 2.0 9.0 0.00 0.04 0.00 77 1003.3
20260831034704 60 247 2.0 9.0 0.00 0.04 0.00 77 1003.4
20260831034203 60 241 2.0 9.0 0.00 0.04 0.00 77 1003.3
20260831033204 60 193 2.0 11.0 0.00 0.04 0.00 77 1003.3
20260831032204 61 158 1.0 11.0 0.00 0.04 0.00 77 1003.1
20260831031203 61 233 3.0 7.0 0.00 0.04 0.00 76 1003.1
20260831030704 61 221 2.0 7.0 0.00 0.04 0.00 76 1003.1
20260831030204 61 245 2.0 7.0 0.00 0.04 0.00 75 1003.1
20260831025705 61 213 2.0 7.0 0.00 0.04 0.00 75 1003.0
20260831025204 61 244 0.0 6.0 0.00 0.04 0.00 75 1002.9
20260831024704 61 180 1.0 6.0 0.00 0.04 0.00 75 1002.9
20260831023704 61 176 2.0 6.0 0.00 0.04 0.00 74 1002.8
20260831023203 61 172 2.0 7.0 0.00 0.04 0.00 74 1002.7
20260831022704 61 144 1.0 7.0 0.00 0.04 0.00 74 1002.6
20260831022204 61 248 2.0 11.0 0.00 0.04 0.00 73 1002.5
20260831021705 61 200 0.0 11.0 0.00 0.04 0.00 73 1002.5
20260831021204 61 168 1.0 5.0 0.00 0.04 0.00 73 1002.4
20260831015704 61 188 1.0 5.0 0.00 0.04 0.00 73 1002.5
20260831015209 61 179 1.0 6.0 0.00 0.04 0.00 73 1002.5
20260831014706 61 172 1.0 6.0 0.00 0.04 0.00 73 1002.4
20260831014207 61 182 0.0 6.0 0.00 0.04 0.00 73 1002.6
20260831013704 61 180 1.0 6.0 0.00 0.04 0.00 73 1002.6
20260831013204 61 104 1.0 6.0 0.00 0.04 0.00 73 1002.6
20260831012204 61 180 1.0 6.0 0.00 0.04 0.00 74 1002.7
20260831011704 62 182 1.0 6.0 0.00 0.04 0.00 74 1002.8
20260831011205 62 179 2.0 6.0 0.00 0.04 0.00 74 1002.8
20260831010710 62 155 2.0 5.0 0.00 0.04 0.00 74 1002.9
20260831010204 62 214 2.0 7.0 0.00 0.04 0.00 75 1002.9
20260831005704 62 216 2.0 7.0 0.00 0.04 0.00 75 1003.1
20260831005204 62 162 1.0 7.0 0.00 0.04 0.00 74 1003.0
20260831004704 62 71 2.0 7.0 0.00 0.04 0.00 74 1003.0
20260831004209 62 179 1.0 4.0 0.00 0.04 0.00 74 1002.9
20260831003704 62 168 1.0 4.0 0.00 0.04 0.00 74 1003.0
20260831003207 61 176 0.0 6.0 0.00 0.04 0.00 74 1002.9
20260831002705 61 186 1.0 6.0 0.00 0.04 0.00 74 1003.0
20260831002207 61 175 1.0 5.0 0.00 0.04 0.00 74 1003.0
20260831001209 61 180 0.0 4.0 0.00 0.04 0.00 74 1003.3
20260831000704 61 171 1.0 4.0 0.00 0.04 0.00 74 1003.5
20260831000205 61 165 0.0 7.0 0.00 0.04 0.00 74 1003.5
20260830235704 61 165 0.0 7.0 0.00 0.04 0.00 74 1003.5
20260830234705 61 165 0.0 7.0 0.00 0.04 0.00 74 1003.5
20260830234204 61 165 1.0 3.0 0.00 0.04 0.00 74 1003.7
20260830233704 61 157 0.0 3.0 0.00 0.04 0.00 74 1003.7
20260830232704 61 168 0.0 3.0 0.00 0.04 0.00 75 1003.7
20260830232203 61 165 1.0 3.0 0.00 0.04 0.00 75 1003.7
20260830231204 61 171 1.0 4.0 0.00 0.04 0.00 75 1003.8
20260830230228 61 178 1.0 6.0 0.00 0.04 0.04 75 1004.0
20260830225708 62 180 0.0 6.0 0.00 0.04 0.04 75 1004.1
20260830225204 62 179 1.0 7.0 0.00 0.04 0.04 75 1004.2
20260830224704 62 180 1.0 7.0 0.00 0.04 0.04 75 1004.1
20260830224204 61 188 2.0 7.0 0.00 0.04 0.04 75 1004.2
20260830223704 61 190 1.0 7.0 0.00 0.04 0.04 75 1004.3
20260830223204 61 209 1.0 9.0 0.00 0.04 0.04 76 1004.3
20260830222205 62 179 1.0 9.0 0.00 0.04 0.04 76 1004.3
20260830221705 62 159 1.0 9.0 0.00 0.04 0.04 75 1004.3
20260830221205 62 162 2.0 5.0 0.00 0.04 0.04 75 1004.4
20260830220704 62 186 1.0 5.0 0.00 0.04 0.04 75 1004.3
20260830220214 62 188 1.0 5.0 0.02 0.04 0.04 75 1004.3
20260830215704 62 179 1.0 5.0 0.04 0.04 0.04 75 1004.3
20260830215217 62 180 0.0 5.0 0.04 0.04 0.04 75 1004.3
20260830214204 63 133 2.0 6.0 0.04 0.04 0.04 75 1004.4
20260830213704 63 173 1.0 6.0 0.04 0.04 0.04 75 1004.4
20260830213225 63 154 1.0 5.0 0.04 0.04 0.04 75 1004.4
20260830212704 64 134 1.0 5.0 0.04 0.04 0.04 76 1004.3
20260830211709 64 131 1.0 11.0 0.04 0.04 0.04 76 1004.3
20260830210709 65 197 3.0 5.0 0.03 0.03 0.03 77 1004.5
20260830210205 65 116 1.0 5.0 0.02 0.00 0.00 77 1004.4
20260830205704 65 142 1.0 5.0 0.00 0.00 0.00 77 1004.2
20260830205232 65 100 1.0 4.0 0.00 0.00 0.00 77 1004.2
20260830204705 65 96 2.0 4.0 0.00 0.00 0.00 77 1004.3
20260830204204 65 109 2.0 6.0 0.00 0.00 0.00 76 1004.5
20260830203704 66 109 1.0 6.0 0.00 0.00 0.00 76 1004.6
20260830203205 66 104 2.0 6.0 0.00 0.00 0.00 76 1004.6
20260830202704 66 128 1.0 6.0 0.00 0.00 0.00 75 1004.5
20260830202207 66 125 1.0 6.0 0.00 0.00 0.00 74 1004.6
20260830201704 66 131 1.0 6.0 0.00 0.00 0.00 74 1004.5
20260830201206 66 99 1.0 5.0 0.00 0.00 0.00 74 1004.5
20260830200704 66 164 0.0 5.0 0.00 0.00 0.00 75 1004.5
20260830200204 66 133 1.0 4.0 0.00 0.00 0.00 75 1004.7
20260830195704 66 165 1.0 4.0 0.00 0.00 0.00 75 1004.8
20260830195205 66 196 1.0 5.0 0.00 0.00 0.00 75 1004.7
20260830194704 66 190 0.0 5.0 0.00 0.00 0.00 75 1004.7
20260830194204 66 192 2.0 4.0 0.00 0.00 0.00 75 1004.8
20260830193204 66 148 0.0 4.0 0.00 0.00 0.00 75 1004.9
20260830192704 66 182 0.0 4.0 0.00 0.00 0.00 74 1004.9
20260830192205 66 176 1.0 4.0 0.00 0.00 0.00 74 1005.0
20260830191704 67 154 1.0 4.0 0.00 0.00 0.00 73 1004.9
20260830191204 67 179 1.0 9.0 0.00 0.00 0.00 73 1004.8
20260830190204 67 175 2.0 10.0 0.00 0.00 0.00 73 1005.0
20260830184704 67 149 2.0 10.0 0.00 0.00 0.00 72 1004.8
20260830184203 67 193 2.0 7.0 0.00 0.00 0.00 71 1004.9
20260830183205 68 186 2.0 9.0 0.00 0.00 0.00 70 1005.1
20260830182704 68 87 3.0 9.0 0.00 0.00 0.00 70 1005.0
20260830182205 68 161 2.0 9.0 0.00 0.00 0.00 69 1005.0
20260830181704 68 180 2.0 9.0 0.00 0.00 0.00 69 1004.9
20260830181204 68 185 3.0 9.0 0.00 0.00 0.00 68 1004.9
20260830180704 68 180 2.0 9.0 0.00 0.00 0.00 68 1005.0
20260830175704 68 237 1.0 9.0 0.00 0.00 0.00 68 1005.2
20260830175203 69 148 2.0 9.0 0.00 0.00 0.00 68 1005.3
20260830174704 69 165 2.0 9.0 0.00 0.00 0.00 68 1005.3
20260830174205 69 245 2.0 6.0 0.00 0.00 0.00 67 1005.3
20260830173705 69 154 2.0 6.0 0.00 0.00 0.00 67 1005.2
20260830173204 69 224 2.0 5.0 0.00 0.00 0.00 67 1005.1
20260830172705 70 140 2.0 12.0 0.00 0.00 0.00 66 1005.2
20260830172205 70 165 2.0 12.0 0.00 0.00 0.00 66 1005.2
20260830171714 70 120 1.0 12.0 0.00 0.00 0.00 66 1005.1
20260830170705 71 172 3.0 9.0 0.00 0.01 0.00 64 1005.2
20260830170205 71 231 3.0 9.0 0.00 0.01 0.00 63 1005.4
20260830165704 71 228 2.0 9.0 0.00 0.01 0.00 63 1005.3
20260830164204 71 193 2.0 12.0 0.00 0.01 0.00 62 1005.3
20260830163704 71 188 3.0 12.0 0.00 0.01 0.00 61 1005.4
20260830163204 71 202 2.0 11.0 0.00 0.01 0.00 61 1005.4
20260830162704 72 152 3.0 11.0 0.00 0.01 0.00 60 1005.6
20260830162204 72 207 3.0 11.0 0.00 0.01 0.00 60 1005.5
20260830161704 72 175 3.0 11.0 0.00 0.01 0.00 59 1005.6
20260830161204 72 204 4.0 10.0 0.00 0.01 0.00 59 1005.6
20260830160705 72 241 4.0 10.0 0.00 0.01 0.00 59 1005.5
20260830160204 72 154 3.0 12.0 0.00 0.01 0.00 59 1005.6
20260830155709 72 248 3.0 12.0 0.00 0.01 0.00 60 1005.7
20260830153704 72 264 3.0 14.0 0.00 0.02 0.00 61 1005.9
20260830153204 72 200 3.0 6.0 0.00 0.02 0.00 62 1005.8
20260830152705 72 158 1.0 6.0 0.00 0.02 0.00 63 1005.8
20260830152205 72 155 2.0 7.0 0.00 0.02 0.00 64 1005.9
20260830151704 71 212 2.0 7.0 0.00 0.02 0.00 63 1006.0
20260830151204 71 152 2.0 10.0 0.00 0.02 0.00 63 1006.0
20260830150705 71 209 2.0 10.0 0.00 0.02 0.00 63 1005.9
20260830145704 72 172 2.0 10.0 0.00 0.02 0.00 64 1006.0
20260830145204 72 87 2.0 10.0 0.00 0.02 0.00 63 1006.1
20260830144704 72 92 3.0 10.0 0.00 0.03 0.00 63 1006.0
20260830144204 72 199 4.0 11.0 0.00 0.03 0.00 62 1006.1
20260830143204 73 142 2.0 10.0 0.00 0.03 0.00 64 1006.1
20260830142704 73 169 2.0 10.0 0.00 0.04 0.00 63 1006.1
20260830142205 73 106 3.0 10.0 0.00 0.04 0.00 62 1006.1
20260830141704 73 338 3.0 10.0 0.00 0.04 0.00 63 1006.1
20260830141234 73 61 3.0 7.0 0.00 0.05 0.00 64 1006.2
20260830140706 73 168 2.0 7.0 0.00 0.05 0.00 63 1006.2
20260830135707 72 183 2.0 10.0 0.00 0.06 0.00 64 1006.3
20260830135204 72 226 4.0 7.0 0.00 0.06 0.00 65 1006.4
20260830134704 72 120 2.0 7.0 0.00 0.06 0.00 66 1006.5
20260830134204 72 179 2.0 14.0 0.00 0.07 0.00 67 1006.5
20260830133712 71 118 2.0 14.0 0.00 0.07 0.00 68 1006.6
20260830132704 70 179 2.0 6.0 0.00 0.07 0.00 71 1006.8
20260830132205 69 96 2.0 7.0 0.00 0.07 0.00 72 1006.8
20260830131705 69 186 3.0 7.0 0.00 0.07 0.00 73 1006.9
20260830131207 69 176 2.0 13.0 0.00 0.07 0.00 74 1007.0
20260830130707 69 113 2.0 13.0 0.00 0.07 0.00 73 1007.0
20260830130204 70 154 3.0 9.0 0.00 0.07 0.00 71 1007.1
20260830125707 71 164 2.0 9.0 0.00 0.07 0.00 68 1007.1
20260830125203 72 203 2.0 9.0 0.00 0.07 0.00 64 1007.0
20260830124704 73 127 2.0 9.0 0.00 0.07 0.00 63 1006.7
20260830123704 73 85 1.0 7.0 0.00 0.07 0.00 61 1006.9
20260830123204 73 183 2.0 5.0 0.00 0.07 0.00 60 1006.9
20260830122707 73 210 3.0 5.0 0.00 0.07 0.00 60 1006.9
20260830122207 73 166 2.0 10.0 0.00 0.07 0.00 60 1006.9
20260830121707 73 90 1.0 10.0 0.00 0.08 0.00 61 1006.9
20260830121220 73 162 1.0 6.0 0.00 0.08 0.00 61 1006.9
20260830120707 73 180 3.0 6.0 0.00 0.08 0.00 60 1007.0
20260830120205 73 158 2.0 6.0 0.00 0.08 0.00 61 1006.9